KAL1234 RKSI-RKPK

Flight info

Callsign KAL1234
Flight time 0h 39m
Altitude 23000
Route OSPOT2H OSPOT Y782 TGU Z83 MASTA KEVOX3
Aircraft A21N/M-SDE2E3FGHIRWXY/LB1

Departure

Time 2026-05-06 09:50
Airport Incheon International Airport (RKSI)

Arrival

Time 2026-05-06 10:29
Airport Gimhae International Airport (RKPK)
Time Latitude Longitude Altitude Speed Heading
2026-05-06 09:17 37.44922 126.44648 38 ft 0 kts 35°
2026-05-06 09:33 37.44904 126.44631 38 ft 4 kts 35°
2026-05-06 09:33 37.44882 126.44612 38 ft 4 kts 35°
2026-05-06 09:33 37.44864 126.44595 38 ft 3 kts 35°
2026-05-06 09:34 37.44842 126.44583 38 ft 4 kts 358°
2026-05-06 09:34 37.44823 126.44593 38 ft 2 kts 308°
2026-05-06 09:34 37.44808 126.44613 38 ft 4 kts 338°
2026-05-06 09:34 37.44786 126.44617 38 ft 4 kts
2026-05-06 09:35 37.44759 126.44611 38 ft 4 kts 17°
2026-05-06 09:35 37.44744 126.44605 38 ft 0 kts 15°
2026-05-06 09:41 37.44760 126.44611 38 ft 3 kts 15°
2026-05-06 09:41 37.44790 126.44615 38 ft 5 kts
2026-05-06 09:42 37.44827 126.44592 38 ft 7 kts 316°
2026-05-06 09:42 37.44859 126.44532 38 ft 9 kts 305°
2026-05-06 09:42 37.44901 126.44458 38 ft 11 kts 305°
2026-05-06 09:42 37.44950 126.44373 38 ft 13 kts 306°
2026-05-06 09:43 37.45007 126.44272 38 ft 15 kts 305°
2026-05-06 09:43 37.45086 126.44180 38 ft 17 kts 325°
2026-05-06 09:43 37.45058 126.44053 38 ft 18 kts 234°
2026-05-06 09:43 37.45093 126.43925 37 ft 19 kts 326°
2026-05-06 09:44 37.45207 126.43822 38 ft 21 kts 325°
2026-05-06 09:44 37.45329 126.43714 38 ft 22 kts 324°
2026-05-06 09:44 37.45459 126.43600 38 ft 23 kts 325°
2026-05-06 09:44 37.45595 126.43477 38 ft 25 kts 324°
2026-05-06 09:45 37.45740 126.43349 38 ft 26 kts 324°
2026-05-06 09:45 37.45872 126.43232 38 ft 22 kts 325°
2026-05-06 09:45 37.45995 126.43122 37 ft 22 kts 325°
2026-05-06 09:45 37.46125 126.43006 37 ft 24 kts 323°
2026-05-06 09:46 37.46262 126.42884 38 ft 25 kts 325°
2026-05-06 09:46 37.46384 126.42775 38 ft 20 kts 325°
2026-05-06 09:46 37.46494 126.42677 38 ft 19 kts 324°
2026-05-06 09:46 37.46605 126.42579 38 ft 20 kts 325°
2026-05-06 09:47 37.46724 126.42474 36 ft 22 kts 325°
2026-05-06 09:47 37.46851 126.42361 38 ft 23 kts 325°
2026-05-06 09:47 37.46982 126.42243 36 ft 24 kts 324°
2026-05-06 09:47 37.47124 126.42117 38 ft 26 kts 324°
2026-05-06 09:48 37.47270 126.41987 38 ft 24 kts 324°
2026-05-06 09:48 37.47333 126.41874 38 ft 18 kts 241°
2026-05-06 09:48 37.47259 126.41741 38 ft 19 kts 234°
2026-05-06 09:48 37.47186 126.41647 38 ft 12 kts 169°
2026-05-06 09:49 37.47133 126.41688 36 ft 0 kts 144°
2026-05-06 09:49 37.47065 126.41751 38 ft 46 kts 144°
2026-05-06 09:49 37.46555 126.42203 38 ft 133 kts 144°
2026-05-06 09:50 37.45599 126.43062 357 ft 184 kts 144°
2026-05-06 09:50 37.44564 126.43959 1590 ft 180 kts 147°
2026-05-06 09:50 37.43434 126.44754 2250 ft 202 kts 154°
2026-05-06 09:50 37.42132 126.45667 2613 ft 226 kts 149°
2026-05-06 09:51 37.40727 126.46735 3106 ft 244 kts 148°
2026-05-06 09:51 37.39242 126.47876 3764 ft 254 kts 149°
2026-05-06 09:51 37.37635 126.48822 4549 ft 258 kts 163°
2026-05-06 09:51 37.35919 126.49404 5348 ft 260 kts 165°
2026-05-06 09:52 37.34152 126.49978 6143 ft 264 kts 165°
2026-05-06 09:52 37.32369 126.50560 6929 ft 266 kts 165°
2026-05-06 09:52 37.30574 126.51184 7674 ft 270 kts 161°
2026-05-06 09:52 37.28940 126.52332 8389 ft 273 kts 137°
2026-05-06 09:53 37.27824 126.54245 9086 ft 275 kts 112°
2026-05-06 09:53 37.27390 126.56592 9782 ft 278 kts 96°
2026-05-06 09:53 37.27223 126.59052 10242 ft 292 kts 94°
2026-05-06 09:53 37.27064 126.61640 10512 ft 311 kts 94°
2026-05-06 09:54 37.27043 126.64432 10763 ft 329 kts 86°
2026-05-06 09:54 37.27209 126.67369 11069 ft 344 kts 85°
2026-05-06 09:54 37.27400 126.70394 11612 ft 350 kts 85°
2026-05-06 09:54 37.27580 126.73462 12268 ft 354 kts 86°
2026-05-06 09:55 37.27740 126.76553 12918 ft 356 kts 86°
2026-05-06 09:55 37.27903 126.79668 13550 ft 360 kts 86°
2026-05-06 09:55 37.28047 126.82819 14166 ft 363 kts 89°
2026-05-06 09:55 37.27758 126.85969 14747 ft 366 kts 105°
2026-05-06 09:56 37.26763 126.88916 15323 ft 369 kts 121°
2026-05-06 09:56 37.25147 126.91360 15853 ft 372 kts 138°
2026-05-06 09:56 37.23021 126.93229 16409 ft 375 kts 149°
2026-05-06 09:56 37.20762 126.94901 16952 ft 378 kts 149°
2026-05-06 09:57 37.18485 126.96577 17478 ft 381 kts 149°
2026-05-06 09:57 37.16194 126.98268 17993 ft 384 kts 150°
2026-05-06 09:57 37.13865 126.99937 18508 ft 387 kts 150°
2026-05-06 09:57 37.11519 127.01616 19007 ft 389 kts 150°
2026-05-06 09:58 37.09197 127.03302 19486 ft 392 kts 149°
2026-05-06 09:58 37.06864 127.05090 19957 ft 395 kts 148°
2026-05-06 09:58 37.04519 127.06907 20411 ft 398 kts 148°
2026-05-06 09:58 37.02156 127.08729 20852 ft 401 kts 148°
2026-05-06 09:59 36.99773 127.10561 21298 ft 403 kts 148°
2026-05-06 09:59 36.97376 127.12400 21730 ft 406 kts 148°
2026-05-06 09:59 36.94959 127.14253 22158 ft 408 kts 148°
2026-05-06 09:59 36.92729 127.16374 22549 ft 411 kts 136°
2026-05-06 10:00 36.90935 127.19161 22895 ft 414 kts 122°
2026-05-06 10:00 36.89504 127.22226 23026 ft 400 kts 119°
2026-05-06 10:00 36.88161 127.25253 23017 ft 398 kts 119°
2026-05-06 10:00 36.86802 127.28264 23010 ft 398 kts 120°
2026-05-06 10:01 36.85431 127.31259 23005 ft 398 kts 120°
2026-05-06 10:01 36.83995 127.34213 23001 ft 398 kts 124°
2026-05-06 10:01 36.82206 127.36850 23003 ft 398 kts 134°
2026-05-06 10:01 36.80267 127.39249 23004 ft 398 kts 136°
2026-05-06 10:02 36.78282 127.41655 23003 ft 398 kts 136°
2026-05-06 10:02 36.76300 127.44061 23001 ft 397 kts 135°
2026-05-06 10:02 36.74329 127.46466 23001 ft 397 kts 135°
2026-05-06 10:02 36.72359 127.48871 23001 ft 396 kts 135°
2026-05-06 10:03 36.70393 127.51291 23002 ft 400 kts 135°
2026-05-06 10:03 36.68402 127.53730 23003 ft 401 kts 135°
2026-05-06 10:03 36.66410 127.56176 23001 ft 403 kts 135°
2026-05-06 10:03 36.64412 127.58623 23001 ft 403 kts 135°
2026-05-06 10:04 36.62441 127.61036 23001 ft 403 kts 135°
2026-05-06 10:04 36.60442 127.63471 23001 ft 402 kts 135°
2026-05-06 10:04 36.58439 127.65909 23002 ft 403 kts 135°
2026-05-06 10:04 36.56436 127.68344 23002 ft 403 kts 135°
2026-05-06 10:05 36.54433 127.70785 23002 ft 403 kts 135°
2026-05-06 10:05 36.52432 127.73220 23002 ft 402 kts 135°
2026-05-06 10:05 36.50431 127.75651 23002 ft 402 kts 135°
2026-05-06 10:05 36.48433 127.78081 23001 ft 402 kts 135°
2026-05-06 10:06 36.46457 127.80485 23002 ft 402 kts 135°
2026-05-06 10:06 36.44462 127.82913 23002 ft 402 kts 135°
2026-05-06 10:06 36.42460 127.85344 23002 ft 402 kts 136°
2026-05-06 10:06 36.40460 127.87769 23003 ft 402 kts 135°
2026-05-06 10:07 36.38457 127.90196 23002 ft 403 kts 136°
2026-05-06 10:07 36.36449 127.92622 23003 ft 403 kts 136°
2026-05-06 10:07 36.34436 127.95049 23002 ft 403 kts 136°
2026-05-06 10:07 36.32434 127.97471 23002 ft 402 kts 135°
2026-05-06 10:08 36.30429 127.99894 23003 ft 403 kts 136°
2026-05-06 10:08 36.28446 128.02287 23002 ft 403 kts 135°
2026-05-06 10:08 36.26437 128.04717 23001 ft 404 kts 136°
2026-05-06 10:08 36.24420 128.07138 23003 ft 403 kts 136°
2026-05-06 10:09 36.22409 128.09552 23002 ft 402 kts 136°
2026-05-06 10:09 36.20402 128.11961 23003 ft 402 kts 136°
2026-05-06 10:09 36.18398 128.14371 23003 ft 402 kts 136°
2026-05-06 10:09 36.16392 128.16773 23002 ft 401 kts 136°
2026-05-06 10:10 36.14380 128.19169 23002 ft 401 kts 136°
2026-05-06 10:10 36.12395 128.21536 23001 ft 402 kts 136°
2026-05-06 10:10 36.10385 128.23938 23000 ft 402 kts 136°
2026-05-06 10:10 36.08379 128.26351 23002 ft 402 kts 136°
2026-05-06 10:11 36.06364 128.28758 23002 ft 403 kts 136°
2026-05-06 10:11 36.04353 128.31163 23001 ft 402 kts 136°
2026-05-06 10:11 36.02350 128.33574 23001 ft 402 kts 136°
2026-05-06 10:11 36.00364 128.35960 22730 ft 397 kts 135°
2026-05-06 10:12 35.98391 128.38331 22462 ft 395 kts 136°
2026-05-06 10:12 35.96419 128.40685 22203 ft 393 kts 136°
2026-05-06 10:12 35.94455 128.43031 21952 ft 392 kts 136°
2026-05-06 10:12 35.92526 128.45334 21702 ft 391 kts 136°
2026-05-06 10:13 35.90575 128.47658 21455 ft 389 kts 136°
2026-05-06 10:13 35.88631 128.49972 21205 ft 388 kts 136°
2026-05-06 10:13 35.86690 128.52275 20956 ft 387 kts 136°
2026-05-06 10:13 35.84757 128.54567 20704 ft 385 kts 136°
2026-05-06 10:14 35.82775 128.56767 20449 ft 383 kts 143°
2026-05-06 10:14 35.80433 128.58324 20122 ft 384 kts 161°
2026-05-06 10:14 35.77837 128.58910 19637 ft 378 kts 179°
2026-05-06 10:14 35.75258 128.58728 19118 ft 376 kts 185°
2026-05-06 10:15 35.72661 128.58412 18583 ft 374 kts 185°
2026-05-06 10:15 35.70070 128.58121 18044 ft 374 kts 185°
2026-05-06 10:15 35.67476 128.57858 17518 ft 374 kts 184°
2026-05-06 10:15 35.64882 128.57611 16977 ft 374 kts 184°
2026-05-06 10:16 35.62288 128.57372 16435 ft 374 kts 184°
2026-05-06 10:16 35.59694 128.57135 15914 ft 373 kts 184°
2026-05-06 10:16 35.57110 128.56901 15416 ft 372 kts 184°
2026-05-06 10:16 35.54564 128.56671 14914 ft 371 kts 184°
2026-05-06 10:17 35.51992 128.56438 14382 ft 369 kts 184°
2026-05-06 10:17 35.49457 128.56211 13863 ft 362 kts 184°
2026-05-06 10:17 35.46967 128.56314 13353 ft 356 kts 170°
2026-05-06 10:17 35.44568 128.56931 12712 ft 350 kts 168°
2026-05-06 10:18 35.42160 128.57617 12295 ft 357 kts 169°
2026-05-06 10:18 35.39748 128.58300 11864 ft 355 kts 169°
2026-05-06 10:18 35.37341 128.58977 11392 ft 355 kts 169°
2026-05-06 10:18 35.34954 128.59645 11016 ft 346 kts 169°
2026-05-06 10:19 35.32651 128.60289 10791 ft 332 kts 169°
2026-05-06 10:19 35.30475 128.60902 10606 ft 318 kts 169°
2026-05-06 10:19 35.28361 128.61486 10433 ft 305 kts 169°
2026-05-06 10:19 35.26331 128.62043 10210 ft 295 kts 170°
2026-05-06 10:20 35.24340 128.62584 9769 ft 293 kts 170°
2026-05-06 10:20 35.22355 128.63055 9180 ft 288 kts 177°
2026-05-06 10:20 35.20384 128.63074 8721 ft 280 kts 183°
2026-05-06 10:20 35.18433 128.63079 8357 ft 281 kts 180°
2026-05-06 10:21 35.16475 128.63273 7988 ft 283 kts 175°
2026-05-06 10:21 35.14537 128.63655 7624 ft 280 kts 171°
2026-05-06 10:21 35.12664 128.64234 7293 ft 281 kts 165°
2026-05-06 10:21 35.10824 128.65011 6822 ft 284 kts 160°
2026-05-06 10:22 35.08995 128.65989 6283 ft 285 kts 155°
2026-05-06 10:22 35.07273 128.67106 5848 ft 277 kts 151°
2026-05-06 10:22 35.05654 128.68356 5326 ft 275 kts 146°
2026-05-06 10:22 35.04127 128.69751 4782 ft 274 kts 141°
2026-05-06 10:23 35.02701 128.71279 4244 ft 272 kts 137°
2026-05-06 10:23 35.01471 128.73017 3801 ft 270 kts 121°
2026-05-06 10:23 35.00931 128.75177 3396 ft 268 kts 92°
2026-05-06 10:23 35.01259 128.77347 2996 ft 266 kts 66°
2026-05-06 10:24 35.02385 128.79111 2539 ft 266 kts 38°
2026-05-06 10:24 35.04037 128.80074 2074 ft 265 kts 11°
2026-05-06 10:24 35.05844 128.80520 1620 ft 266 kts 20°
2026-05-06 10:24 35.07414 128.81690 1359 ft 265 kts 37°
2026-05-06 10:25 35.08865 128.83072 1612 ft 262 kts 38°
2026-05-06 10:25 35.10290 128.84434 2255 ft 248 kts 38°
2026-05-06 10:25 35.11614 128.85680 2551 ft 238 kts 38°
2026-05-06 10:25 35.12860 128.86878 2625 ft 218 kts 38°
2026-05-06 10:26 35.14026 128.88004 2635 ft 218 kts 38°
2026-05-06 10:26 35.15212 128.89144 2657 ft 216 kts 39°
2026-05-06 10:26 35.16378 128.90252 2645 ft 203 kts 37°
2026-05-06 10:26 35.17424 128.91228 2644 ft 177 kts 37°
2026-05-06 10:27 35.18539 128.91608 2365 ft 168 kts 355°
2026-05-06 10:27 35.19700 128.91550 2297 ft 166 kts 344°
2026-05-06 10:27 35.20701 128.90901 1977 ft 164 kts 348°
2026-05-06 10:27 35.21792 128.91270 1251 ft 178 kts 43°
2026-05-06 10:28 35.21937 128.92504 789 ft 143 kts 136°
2026-05-06 10:28 35.21145 128.93087 562 ft 132 kts 157°
2026-05-06 10:28 35.20264 128.93386 361 ft 132 kts 170°
2026-05-06 10:28 35.19354 128.93513 190 ft 130 kts 175°
2026-05-06 10:29 35.18453 128.93629 28 ft 127 kts 174°
2026-05-06 10:29 35.17766 128.93720 31 ft 70 kts 174°
2026-05-06 10:29 35.17344 128.93773 31 ft 37 kts 174°
2026-05-06 10:29 35.17169 128.93814 30 ft 25 kts 144°
2026-05-06 10:30 35.17028 128.93940 28 ft 25 kts 144°
2026-05-06 10:30 35.16964 128.94043 27 ft 14 kts 102°
2026-05-06 10:30 35.16969 128.94168 28 ft 16 kts 83°
2026-05-06 10:30 35.16983 128.94309 29 ft 18 kts 83°
2026-05-06 10:31 35.16997 128.94465 29 ft 19 kts 85°
2026-05-06 10:31 35.16962 128.94626 29 ft 20 kts 113°
2026-05-06 10:31 35.16967 128.94724 29 ft 14 kts 26°
2026-05-06 10:31 35.17004 128.94746 29 ft 0 kts 25°